Cloud_Cover
17 73 90 100 100 100 100 100 85 86 89 100 100 6 0 1 0 1 0 2 0 0 0 3 0 1 0 0 0 0 5 3 6 5 2 5 2 5 72 6 5 5 86 22 6 5 6 5 5
4 47 100 100 100 100 100 100 100 100 100 100 100 97 5 4 0 2 0 0 0 1 4 5 5 4 3 0 2 3 0 0 5 5 16 7 3 5 25 90 49 5 5 72 5 5 65 6 5
5 60 96 100 100 100 100 100 100 94 100 100 100 11 5 0 0 0 0 0 0 4 8 5 5 5 5 5 5 5 4 0 1 5 25 7 4 16 100 81 70 82 80 75 21 21 5 12 4
5 41 100 100 100 100 100 100 100 100 100 100 55 13 0 5 0 0 0 0 0 15 6 4 5 5 5 5 5 5 5 0 5 5 23 5 5 82 100 40 98 64 100 15 5 10 15 5 5
96 100 100 100 100 100 100 100 100 100 100 100 100 3 3 0 2 0 0 0 2 8 9 5 5 5 5 5 5 5 5 8 19 6 93 16 8 85 5 69 91 88 99 18 5 6 9 27 9
46 62 100 100 100 100 100 100 100 100 100 100 100 0 10 22 0 0 0 0 5 6 13 5 43 5 5 5 5 5 5 53 100 47 99 100 99 90 45 69 100 100 100 97 5 0 12 100 71
5 91 11 99 100 100 100 100 100 100 100 100 36 34 62 47 0 0 4 5 5 5 6 40 6 38 22 16 5 11 5 49 36 95 100 100 100 100 94 100 100 99 100 99 5 3 7 40 98
6 38 5 2 61 100 100 100 100 100 2 94 50 80 16 56 0 0 0 7 62 5 70 5 6 15 5 8 48 66 100 89 97 23 97 100 92 100 100 68 100 100 100 65 5 5 22 68 40
99 62 0 5 2 2 38 93 80 30 7 49 94 14 0 0 35 0 0 3 38 37 32 5 6 5 6 11 92 97 100 100 98 84 100 100 99 59 100 94 100 100 100 5 5 5 38 36 17
89 16 5 0 3 0 0 0 17 0 5 41 22 64 6 18 2 0 3 13 10 5 5 5 5 38 82 38 37 91 100 100 92 96 100 100 32 99 100 100 100 100 78 16 16 67 61 5 82
37 5 5 1 5 0 0 0 0 0 25 3 3 0 0 95 34 0 0 45 0 1 5 5 5 11 12 98 100 96 100 100 77 100 90 67 99 92 100 100 100 100 54 98 69 45 36 67 86
5 28 0 6 3 6 0 0 0 0 14 52 25 78 0 2 7 96 15 0 1 5 0 0 5 5 29 40 87 100 44 84 100 89 55 51 43 98 96 100 30 68 62 8 84 100 5 82 100
5 3 1 0 0 100 47 2 0 0 0 74 87 7 0 0 0 0 1 0 0 2 4 4 68 20 94 5 38 98 87 67 87 100 20 24 85 100 100 100 44 75 65 26 92 76 6 20 100
15 5 16 5 8 88 99 0 0 0 0 0 4 7 12 80 0 6 2 0 0 0 0 15 5 43 7 5 74 98 85 51 88 98 92 99 100 100 100 90 73 100 59 40 45 96 78 84 98
97 4 5 5 7 0 61 75 2 10 1 5 3 0 25 31 0 0 0 0 0 0 0 0 5 5 5 23 94 99 99 79 91 70 6 28 100 100 16 98 100 100 30 99 66 100 100 92 98
87 55 6 5 5 0 2 12 75 100 10 17 3 0 0 39 81 45 0 0 0 0 0 0 0 5 5 16 57 99 100 100 98 93 99 62 6 33 41 81 100 100 30 41 100 100 99 89 80
77 99 48 16 3 0 0 9 3 21 7 30 0 0 3 100 100 100 66 17 68 8 0 0 0 0 5 5 5 22 100 100 100 80 95 11 59 64 5 24 100 100 80 34 100 99 100 77 44
15 4 98 5 0 0 0 4 0 0 0 0 0 0 8 100 95 91 12 58 11 1 0 0 0 0 15 5 96 89 100 100 100 99 80 100 83 100 100 23 6 9 25 97 95 100 100 100 100
44 18 39 54 0 1 0 0 5 0 0 0 2 0 22 100 96 78 78 12 100 4 0 0 0 0 0 13 77 97 100 100 100 100 100 100 100 100 100 55 59 5 5 31 100 100 100 97 100
14 54 15 7 3 7 0 1 0 0 0 0 0 3 2 4 7 96 82 92 100 100 24 3 0 0 0 0 0 97 100 100 99 34 53 100 98 82 31 42 41 92 26 15 100 100 100 100 100
6 66 96 5 30 18 3 0 0 1 0 0 0 1 2 4 53 95 100 76 95 99 62 5 2 0 0 0 1 11 92 92 87 89 9 84 100 100 100 100 100 100 76 73 67 82 90 100 100
7 96 78 85 20 5 3 0 0 13 0 0 0 0 0 12 54 99 100 100 100 99 100 86 90 5 14 83 0 1 4 13 54 91 12 76 100 100 100 100 100 100 100 98 100 99 87 100 100
96 93 40 24 4 1 1 0 4 5 0 3 5 2 8 5 34 100 100 100 100 100 100 100 95 81 7 10 29 3 4 98 56 60 100 100 100 100 100 100 100 100 100 100 100 100 86 100 100
69 55 34 5 5 0 58 60 5 17 4 58 5 67 91 98 38 96 100 100 100 100 100 100 100 100 100 46 84 29 0 6 52 91 100 100 100 100 100 100 100 100 95 99 100 92 100 100 100
22 3 47 14 2 19 98 98 20 1 0 1 25 89 100 100 100 100 100 100 100 100 100 100 100 100 19 98 96 69 0 9 89 60 85 100 100 100 100 100 100 100 100 70 95 100 100 100 100
81 0 1 2 2 80 17 18 6 2 3 97 13 78 100 99 100 100 100 100 100 100 100 100 100 100 94 23 96 100 100 0 4 5 100 100 100 100 100 100 100 100 100 86 33 76 100 97 100
5 0 0 2 5 4 36 43 97 82 99 91 100 95 100 100 100 100 100 100 100 100 100 100 61 77 12 66 100 92 100 100 98 100 69 95 100 100 100 100 100 100 100 87 99 95 78 100 94
0 0 0 0 0 0 4 5 4 49 100 60 7 93 86 100 100 100 100 100 70 84 96 100 89 95 100 100 99 100 100 100 100 100 100 98 25 93 100 100 100 100 100 27 19 100 50 84 16
6 5 0 0 5 4 4 1 0 100 100 84 31 100 100 100 100 100 100 100 100 100 100 100 100 100 100 100 100 100 100 76 10 25 32 100 82 28 70 100 100 100 100 85 86 100 100 25 32
2 3 0 0 0 4 0 1 3 6 16 5 58 100 100 100 100 100 100 100 100 100 100 100 100 100 100 100 100 100 100 100 41 41 3 0 6 96 89 100 100 100 100 100 100 100 98 5 52